Погода в Грановщине

Россия / Иркутская область     52°27′45″N   104°17′33″E
темп.,
°C
ветер,
м/с
пор.,
м/с
влажн.,
%
обл.,
%
осадки,
мм/ч
давл.,
гПа
погр.,
м
22 января, пт
пт2223:00−18в239398 0.0 102238
02:00−16в348699 0.0 102179
05:00−16св3389100 0.0 102056
08:00−18в129198 0.0 102020
11:00−14вюв368887 0.0 1018171
14:00−9вюв478659 0.0 1013328
17:00−9юв378956 0.0 1012153
20:00−10юв5118774 0.0 1011235
23 января, сб
сб2323:00−9юв499078 0.0 1011178
02:00−11вюв239286 0.0 101322
05:00−14сз119499 0.0 101520
08:00−14з1195100 0.0 101820
11:00−11зсз2495100 0.2 1021192
14:00−7ссз5793100 0.9 1023539
17:00−9сз5992100 0.8 1027483
20:00−12сз4892100 1.1 1030330
24 января, вс
вс2423:00−13сз3693100 0.3 1031241
02:00−14сз2491100 0.3 1032105
05:00−15сз2391100 0.0 103261
08:00−16сз2289100 0.0 103322
11:00−15сз1285100 0.0 1034136
14:00−13сз2280100 0.0 1033410
17:00−14зсз2290100 0.0 103359
20:00−16зсз2293100 0.0 103436
25 января, пн
пн2523:00−16сз1196100 0.1 103328
02:00−17сз1196100 0.3 103333
05:00−18сз2392100 0.1 103252
08:00−17сз3597100 0.3 1032202
11:00−16сз4795100 0.4 1033359
14:00−15сз5990100 0.6 1031561
17:00−15сз5989100 0.0 1032579
20:00−17сз51192100 0.0 1034356
26 января, вт
вт2623:00−21зсз4997100 0.0 1036174
02:00−23зсз489893 0.0 1037146
05:00−24зсз379997 0.0 1038158
08:00−25зсз389999 0.1 1040207
11:00−22сз5894100 0.1 1040503
14:00−21зсз5793100 0.1 1038544
17:00−23зсз4793100 0.1 1040469
20:00−25зсз4897100 0.1 1042346